Simultaneous Nadir Overpasses (SNOs) Predictions

Prediction of SNOs between TERRA and METOP-C Satellite Orbit:

Table of predicted SNOs for the next 14.0 days since TLE Epoch: 12/21/2019
Index Date (TERRA) Time (TERRA) Lat,Lon (TERRA) SZA (TERRA ) Date (METOP-C) Time (METOP-C) Lat,Lon (METOP-C) SZA (METOP-C ) Distance(km) Time Diff (sec)
1 12/23/2019 02:08:31 81.28,-165.22 107.34 12/23/2019 02:07:54 81.28,-165.27 107.32 1.17 37
2 12/23/2019 02:57:58 -81.28, 2.28 72.68 12/23/2019 02:58:33 -81.28, 2.29 72.66 0.31 35
3 12/25/2019 21:42:47 81.27, -99.11 107.21 12/25/2019 21:41:44 81.27, -99.20 107.17 1.60 63
4 12/25/2019 22:32:13 -81.28, 68.79 72.76 12/25/2019 22:32:22 -81.28, 68.81 72.76 0.34 9
5 12/28/2019 18:06:27 -81.28, 135.28 72.90 12/28/2019 18:06:10 -81.28, 135.34 72.91 1.03 17
6 12/28/2019 18:55:53 81.29, -56.96 107.12 12/28/2019 18:56:50 81.28, -57.02 107.13 1.27 57
7 12/31/2019 13:40:43 -81.26,-158.62 73.17 12/31/2019 13:40:00 -81.27,-158.53 73.17 1.79 43
8 12/31/2019 14:30:09 81.27, 9.11 106.85 12/31/2019 14:30:40 81.27, 9.04 106.86 1.39 31
9 01/03/2020 09:14:58 -81.26, -92.17 73.43 01/03/2020 09:13:49 -81.27, -92.00 73.44 2.99 69




NCC Satellite Simultaneous Nadir Overpasses (SNOs) Prediction Service
